Location: Diati
(11.8376°N, 2.5966°E)
Time: 17:49:48
(UTC+00:00)

SWARM A - Pass Details

Date: 21 September 2020
Orbit: 430 x 433 km, 87.4° (Epoch: 19 October)

Event Time Altitude Azimuth Distance (km) Brightness Sun altitude
Rises 18:03:35 0° 359° (N) 2,391 8.0 -5.1°
Reaches altitude 10° 18:05:37 10° 357° (N) 1,524 7.1 -5.6°
Maximum altitude 18:08:54 78° 271° (W) 442 4.4 -6.4°
Drops below altitude 10° 18:12:12 10° 185° (S) 1,523 7.0 -7.2°
Sets 18:14:13 0° 183° (S) 2,389 8.0 -7.7°
